Flag for U.S.A. Weather past 2 weeks in Brattleboro, Vermont, U.S.A.

Now
N/A

Clear.


Feels Like: N/A
Forecast: 66 / 86 °F
Wind: 9 mph from South

Location: Keene / Dillant

Current Time: May 25, 2015 at 10:49:50 PM

Latest Report: May 25, 2015 at 10:15 PM


Visibility: 10 mi

Pressure: 30.12 "Hg

Humidity: N/A

Dew point: N/A

Location of BrattleboroLocation

Historic Weather in Brattleboro — Graph

°F

Brattleboro temperature yesterday

Maximum temperature yesterday: 73 °F (at 7:55 PM)
Minimum temperature yesterday: 36 °F (at 3:55 AM)
Average temperature yesterday: 50 °F

Past Weeks' High & Low Weather Summary

 TemperatureHumidityPressure
High84 °F (May 11, 12:55 PM)94% (May 10, 11:55 PM)30.40 "Hg (May 10, 11:55 PM)
Low30 °F (May 14, 5:55 AM)18% (May 15, 4:15 PM)29.66 "Hg (May 12, 3:55 PM)
Average59 °F60%30.07 "Hg
* Reported May 10 9:15 PM — May 25 9:35 PM, Brattleboro, Weather by CustomWeather, © 2015

Note: Actual official high and low records may vary slightly from our data, if they occured in-between our weather recording intervals... More about our weather records

Advertising

Brattleboro weather history for previous 24 hours

 ConditionsComfort  
Time TempWeatherWind HumidityBarometerVisibility
9:35 PM
Mon, May 25
N/AClear.9 mphN/A30.12 "Hg10 mi
9:15 PM73 °FClear.10 mph53%30.12 "Hg10 mi
8:55 PM73 °FSunny.10 mph53%30.11 "Hg10 mi
8:35 PM75 °FSunny.12 mph50%30.11 "Hg10 mi
8:15 PM75 °FSunny.10 mph50%30.11 "Hg10 mi
7:55 PM75 °FSunny.7 mph50%30.11 "Hg10 mi
7:35 PM77 °FSunny.12 mph47%30.11 "Hg10 mi
7:15 PMN/ASunny.12 mphN/A30.11 "Hg10 mi
6:55 PM79 °FSunny.9 mph45%30.12 "Hg10 mi
6:35 PM79 °FSunny.9 mph45%30.11 "Hg10 mi
6:15 PM81 °FPassing clouds.10 mph42%30.12 "Hg10 mi
5:55 PM81 °FSunny.13 mph42%30.11 "Hg10 mi
5:35 PM81 °FSunny.13 mph45%30.12 "Hg10 mi
5:15 PM81 °FPassing clouds.8 mph45%30.13 "Hg10 mi
4:35 PM79 °FPassing clouds.10 mph48%30.14 "Hg10 mi
4:15 PMN/APassing clouds.10 mphN/A30.14 "Hg10 mi
3:55 PM77 °FSunny.8 mph47%30.15 "Hg10 mi
3:35 PM75 °FSunny.7 mph47%30.16 "Hg10 mi
3:15 PM75 °FSunny.10 mph47%30.17 "Hg10 mi
2:55 PMN/ASunny.12 mphN/A30.17 "Hg10 mi
2:35 PMN/ASunny.3 mphN/A30.18 "Hg10 mi
2:15 PMN/ASunny.No windN/A30.19 "Hg10 mi
1:55 PMN/ASunny.No windN/A30.20 "Hg10 mi
1:35 PMN/ASunny.No windN/A30.21 "Hg10 mi
1:15 PM68 °FPassing clouds.No wind64%30.22 "Hg10 mi
12:55 PM68 °FScattered clouds.3 mph64%30.22 "Hg10 mi
12:35 PMN/APassing clouds.3 mphN/A30.22 "Hg10 mi
12:15 PMN/AScattered clouds.3 mphN/A30.23 "Hg10 mi
11:55 AM66 °FPassing clouds.No wind64%30.24 "Hg8 mi
11:35 AMN/APassing clouds.No windN/A30.24 "Hg10 mi
11:15 AMN/APassing clouds.3 mphN/A30.25 "Hg10 mi
10:55 AM66 °FPassing clouds.No wind60%30.25 "Hg10 mi
10:35 AM66 °FPassing clouds.No wind60%30.27 "Hg8 mi
10:15 AM64 °FPassing clouds.5 mph64%30.27 "Hg10 mi
9:55 AM63 °FPassing clouds.No wind64%30.27 "Hg10 mi
9:35 AM63 °FSunny.No wind64%30.27 "Hg10 mi
9:15 AM63 °FPassing clouds.No wind64%30.27 "Hg10 mi
8:55 AM61 °FSunny.No wind68%30.26 "Hg10 mi
8:35 AM61 °FSunny.No wind68%30.26 "Hg9 mi
8:15 AM61 °FSunny.No wind68%30.26 "Hg10 mi
7:55 AM57 °FSunny.No wind77%30.26 "Hg10 mi
7:35 AM57 °FPassing clouds.No wind72%30.26 "Hg10 mi
7:15 AMN/AScattered clouds.No windN/A30.25 "Hg10 mi
6:55 AM55 °FScattered clouds.No wind77%30.26 "Hg10 mi
6:35 AMN/ASunny.No windN/A30.25 "Hg10 mi
6:15 AMN/AClear.No windN/A30.25 "Hg10 mi
5:55 AM50 °FClear.No wind88%30.24 "Hg10 mi
5:35 AMN/AClear.No windN/A30.24 "Hg10 mi
5:15 AM50 °FClear.No wind88%30.24 "Hg10 mi
4:55 AM50 °FClear.No wind82%30.23 "Hg10 mi
4:35 AMN/AClear.No windN/A30.23 "Hg10 mi
4:15 AMN/AClear.No windN/A30.23 "Hg10 mi
3:55 AM50 °FClear.No wind88%30.23 "Hg10 mi
3:35 AM52 °FClear.No wind82%30.23 "Hg10 mi
3:15 AM52 °FClear.No wind77%30.23 "Hg10 mi
2:55 AM52 °FClear.No wind77%30.23 "Hg10 mi
2:35 AM52 °FClear.No wind82%30.23 "Hg10 mi
2:15 AM52 °FClear.No wind77%30.23 "Hg10 mi
1:55 AM52 °FClear.No wind77%30.23 "Hg10 mi
1:35 AM52 °FClear.No wind77%30.23 "Hg10 mi
1:15 AM54 °FClear.3 mph72%30.23 "Hg10 mi
12:55 AMN/AClear.No windN/A30.22 "Hg10 mi
12:35 AM54 °FClear.No wind72%30.23 "Hg10 mi
11:55 PM
Sun, May 24
N/AClear.5 mphN/A30.23 "Hg10 mi
11:35 PM57 °FClear.3 mph63%30.23 "Hg10 mi
11:15 PM57 °FClear.No wind63%30.23 "Hg10 mi
10:55 PM57 °FClear.No wind63%30.23 "Hg10 mi
10:35 PM57 °FClear.No wind63%30.23 "Hg10 mi
10:15 PM59 °FClear.3 mph55%30.22 "Hg10 mi
Weather by CustomWeather, © 2015

See weather overviewHow to use our weather pages